Zurück zum Katalog

NINGXIA-1 3

AktivWissenschaftLEO
NORAD 44781·PAYLOAD·🇨🇳 China

Gestartet Nov 13, 2019 von Taiyuan Satellite Launch Center

Loading…

Nächste Überflüge (nächste 24 Stunden)

TLE

AktuellSource: Space-Track

Epoche: Sep 14, 2026, 15:37 UTC

1 44781U 19076C   26257.65078235 -.00000055  00000-0  48519-4 0  9997
2 44781  45.0000 138.5602 0009958 211.5694 148.4543 14.02012291350413

Verfolge NINGXIA-1 3 in Echtzeit mit AllMySat

Download on the App Store